Location: Camps Bay
(33.9517°S, 18.3844°E)
Time: 20:49:26
(UTC+00:00)

Cosmos 1656 - Pass Details

Date: 18 January 2020
Orbit: 798 x 850 km, 71.1° (Epoch: 16 February)

Event Time Altitude Azimuth Distance (km) Brightness Sun altitude
Rises 01:01:14 0° 196° (SSW) 3,387 7.4 -27.8°
Reaches altitude 10° 01:03:46 10° 190° (S) 2,439 6.6 -27.5°
Maximum altitude 01:09:12 52° 114° (ESE) 1,013 4.3 -26.9°
Enters shadow 01:12:23 23° 47° (NE) 1,644 5.1 -26.5°
